Temperature
9 9 9 9 8 8 8 8 8 8 8 8 8 8 8 8 8 8 8 8 8 8 8 8 8 8 8 8 8 8 8 9 9 9 9 9 9 9 10 10 10 10 10
9 9 9 8 8 8 8 8 7 7 7 7 7 7 7 7 7 7 7 8 8 8 8 8 8 8 7 7 7 7 8 8 8 8 8 8 8 8 8 8 9 9 9
9 9 8 8 8 8 7 7 7 7 7 7 7 7 7 7 7 7 7 8 8 8 8 8 7 7 7 7 7 7 7 7 7 7 7 7 7 7 8 8 8 8 8
9 9 8 8 8 8 7 7 7 7 7 7 7 7 7 7 7 7 8 8 8 8 8 8 8 7 7 7 6 6 6 6 6 6 7 7 7 7 7 7 7 7 7
9 9 8 8 8 8 7 7 7 7 7 7 6 6 7 7 7 8 8 8 8 8 8 8 8 7 7 7 7 6 6 6 6 6 6 6 6 7 7 7 7 7 7
9 8 8 8 8 8 7 7 7 7 7 6 6 6 6 7 7 8 8 8 8 8 7 7 7 7 7 7 7 6 6 6 5 5 5 5 6 6 6 6 7 7 7
9 8 8 8 8 7 7 7 7 7 6 6 6 6 7 7 7 7 7 7 7 7 7 6 6 6 6 6 6 6 6 5 5 5 5 5 5 5 5 6 6 7 7
9 8 8 8 7 7 7 7 6 6 6 6 5 4 4 5 6 6 6 6 6 6 6 5 5 5 5 5 5 5 5 5 4 4 4 4 4 4 5 5 5 6 6
8 8 8 7 7 7 7 6 6 6 6 6 5 4 3 4 4 4 4 5 5 5 5 5 5 5 5 5 5 5 5 5 4 4 4 4 4 4 4 4 4 5 5
8 8 7 7 7 6 6 6 6 5 5 5 5 4 4 3 2 2 3 3 4 4 4 4 4 5 5 4 4 4 4 4 3 3 3 3 3 4 4 4 4 4 4
8 7 7 7 6 6 6 6 5 5 5 5 4 4 4 3 3 2 1 2 3 3 3 3 3 4 4 4 4 3 3 3 3 3 2 3 3 3 3 3 3 3 4
7 7 7 6 6 6 6 5 5 5 5 4 4 4 3 3 2 2 1 1 1 2 2 2 3 3 3 3 2 2 2 2 2 2 2 2 2 2 3 3 3 3 3
7 7 6 6 6 5 5 5 5 4 4 4 4 3 3 2 2 1 1 0 -0 0 1 1 2 2 2 1 1 1 1 1 1 1 1 1 1 1 2 2 2 2 2
6 6 6 5 5 5 5 4 4 4 4 3 3 3 2 2 2 1 0 -0 -1 -1 -1 -0 0 1 0 0 -0 -0 -0 -0 -0 -0 -0 -0 0 0 1 1 1 1 1
6 6 5 5 5 5 4 4 4 4 3 3 3 2 2 2 1 1 0 -1 -2 -3 -2 -2 -2 -1 -1 -1 -1 -1 -1 -1 -1 -1 -1 -1 -1 -1 -0 -0 0 0 1
5 5 5 5 5 4 4 4 4 3 3 3 2 2 1 1 0 0 -0 -1 -2 -3 -4 -3 -3 -3 -2 -2 -2 -2 -2 -2 -2 -2 -2 -2 -2 -1 -1 -1 -1 -0 -0
5 5 5 4 4 4 4 3 3 2 2 2 2 1 1 0 -0 -1 -1 -2 -2 -3 -4 -4 -3 -4 -3 -3 -3 -3 -2 -2 -2 -2 -2 -2 -2 -2 -2 -1 -1 -1 -1
5 4 4 4 4 3 3 2 2 2 1 1 1 0 -0 -1 -1 -2 -2 -3 -3 -3 -4 -5 -4 -4 -4 -4 -4 -3 -3 -3 -3 -3 -3 -3 -3 -2 -2 -2 -2 -2 -1
4 4 4 3 3 3 2 2 1 1 1 0 -0 -1 -1 -2 -2 -3 -3 -3 -4 -4 -5 -5 -5 -4 -4 -4 -4 -4 -4 -3 -3 -3 -3 -3 -3 -3 -3 -2 -2 -2 -2
4 3 3 3 2 2 2 1 1 0 -0 -1 -1 -2 -2 -3 -3 -3 -4 -4 -4 -5 -5 -5 -5 -5 -5 -4 -4 -4 -4 -4 -4 -4 -3 -3 -3 -3 -3 -3 -2 -2 -2
3 3 2 2 2 1 1 0 -0 -1 -1 -2 -2 -2 -3 -3 -4 -4 -5 -5 -5 -5 -5 -5 -5 -5 -5 -5 -5 -4 -5 -4 -4 -4 -4 -3 -3 -3 -3 -3 -3 -3 -3
2 2 2 1 1 1 0 -0 -1 -2 -2 -3 -3 -3 -4 -4 -4 -5 -5 -5 -5 -5 -5 -5 -5 -5 -5 -5 -5 -5 -5 -5 -5 -4 -4 -4 -4 -4 -3 -3 -3 -3 -3
2 1 1 1 0 0 -0 -1 -2 -3 -3 -3 -4 -4 -4 -5 -5 -5 -5 -5 -5 -5 -5 -5 -5 -5 -5 -5 -5 -5 -5 -5 -5 -4 -4 -4 -4 -4 -3 -3 -3 -3 -3
1 1 1 0 -0 -0 -1 -2 -2 -3 -3 -4 -4 -5 -5 -5 -5 -6 -5 -5 -5 -5 -5 -5 -5 -5 -5 -5 -5 -4 -4 -4 -4 -4 -4 -4 -4 -4 -4 -3 -3 -3 -3
1 0 -0 -1 -1 -1 -1 -2 -3 -4 -4 -4 -4 -5 -5 -6 -6 -6 -6 -5 -5 -5 -5 -5 -5 -5 -5 -5 -5 -5 -4 -5 -4 -4 -4 -4 -4 -4 -4 -4 -3 -3 -3
-0 -0 -1 -1 -1 -2 -2 -3 -4 -4 -5 -5 -5 -5 -6 -6 -6 -6 -6 -6 -6 -6 -5 -5 -5 -5 -5 -5 -5 -5 -5 -5 -5 -5 -5 -5 -5 -5 -5 -4 -4 -4 -4
Wind_Speed
7 9 9 10 11 11 10 10 10 10 10 12 12 12 13 15 16 16 17 17 18 19 20 21 21 21 21 21 21 21 21 21 21 21 21 21 20 20 20 19 19 18 17
10 8 7 8 10 11 11 11 11 10 9 9 9 10 12 13 15 16 18 19 20 22 23 23 23 23 23 23 23 23 23 23 24 24 24 24 23 23 23 22 22 21 21
12 10 7 6 9 10 10 9 9 8 6 6 6 8 10 11 13 15 17 18 19 20 23 24 25 25 25 24 24 24 24 24 25 25 26 26 26 26 26 25 25 24 24
11 9 6 5 8 7 6 4 3 3 4 5 5 5 7 9 11 14 16 17 17 18 20 24 25 26 26 25 25 25 24 25 25 26 27 27 28 28 28 28 28 27 27
8 7 5 5 6 4 3 3 3 3 4 5 5 6 5 5 8 12 13 16 17 18 19 21 24 25 25 26 25 25 25 25 25 26 27 27 28 29 29 30 30 30 30
5 5 4 4 4 2 2 2 3 3 3 4 5 6 6 7 7 7 10 13 15 16 17 18 19 20 22 24 25 25 25 25 25 26 26 27 28 29 30 30 31 32 32
3 3 2 2 2 2 3 3 2 3 3 2 3 5 6 6 7 6 6 6 9 13 14 15 16 16 17 21 23 25 26 26 26 26 26 26 27 28 29 30 31 32 33
1 2 2 2 2 1 2 2 2 2 2 1 1 4 5 5 4 4 4 5 6 7 8 11 11 13 16 17 20 25 27 28 28 28 27 27 27 27 28 29 30 31 32
1 1 2 2 1 2 3 3 3 3 4 3 3 3 3 4 5 4 5 6 6 5 5 9 12 15 17 17 19 21 24 26 28 29 29 29 28 28 28 28 29 30 31
1 1 1 1 1 1 2 3 3 3 3 4 3 4 6 5 5 5 4 5 6 7 8 7 10 15 18 18 19 22 26 28 28 29 30 30 30 29 29 28 28 29 30
3 2 1 1 1 1 2 3 3 3 3 4 4 4 4 4 6 7 10 6 5 6 7 7 9 13 17 19 19 21 26 27 28 29 29 30 30 30 30 29 29 28 29
2 3 2 1 2 2 3 4 4 5 4 5 5 5 5 5 5 6 9 11 10 7 7 7 8 10 16 18 20 24 26 26 27 28 28 29 30 30 30 30 29 29 28
1 2 2 2 3 4 5 4 4 5 5 6 6 6 6 7 6 7 9 12 12 8 6 6 8 10 14 16 17 23 25 27 27 28 29 29 29 30 30 30 30 29 29
2 3 3 4 5 6 6 5 4 5 5 6 7 7 6 6 6 6 7 10 14 10 6 8 6 8 12 15 18 24 22 26 28 28 29 30 30 30 30 30 29 29 29
2 3 3 4 5 6 6 5 4 6 6 6 7 7 6 6 6 6 6 6 8 14 13 7 5 6 9 14 19 19 18 24 28 30 30 30 30 29 29 30 29 29 29
2 3 4 4 5 5 5 5 5 6 7 7 6 7 7 6 6 6 6 6 7 11 15 6 6 7 9 14 21 20 18 28 30 30 31 30 30 30 30 30 29 29 29
3 4 5 5 6 6 6 6 7 8 8 8 8 8 9 9 7 7 6 7 7 8 16 14 7 7 9 11 13 16 19 18 20 27 29 29 29 29 29 29 29 29 29
3 4 5 6 7 7 7 7 9 9 9 10 10 9 10 9 9 8 7 9 9 9 13 19 12 8 10 10 12 12 13 16 14 24 27 28 29 28 28 28 28 28 27
5 5 6 7 8 8 8 8 9 9 10 10 10 10 11 10 11 9 9 10 10 11 11 15 16 10 9 9 10 12 13 11 14 20 23 24 25 26 26 27 27 26 26
6 7 7 8 8 8 9 9 9 10 10 10 10 11 11 11 12 11 11 11 11 11 12 13 15 12 10 8 8 9 10 8 10 12 16 20 23 25 25 26 25 25 24
7 7 8 8 8 8 8 9 9 9 10 10 10 10 11 14 18 16 14 10 10 11 11 12 14 13 11 8 8 7 12 10 10 9 10 11 11 10 12 19 21 22 23
7 7 8 9 9 9 16 20 16 10 9 9 10 10 11 14 18 23 25 24 21 15 13 13 14 14 14 11 10 10 12 13 11 5 7 9 7 9 9 7 18 22 22
7 8 9 9 10 12 20 22 22 14 9 9 10 10 11 12 18 12 19 24 22 26 25 18 17 17 16 13 13 14 13 14 14 7 7 12 8 11 9 12 21 22 22
8 8 9 10 10 13 21 22 23 13 9 10 10 11 12 12 13 15 13 13 14 15 18 15 14 16 16 15 15 16 17 15 14 11 9 11 9 10 10 8 18 22 21
8 8 9 10 10 13 20 23 23 10 9 10 10 11 13 12 21 25 18 15 15 13 19 25 26 25 27 27 22 13 11 12 13 8 6 7 7 7 7 8 12 19 19
9 9 9 9 10 11 18 22 23 9 9 10 10 11 18 20 24 26 17 14 17 15 13 15 17 19 17 18 22 13 10 12 11 8 5 5 5 4 4 4 5 5 7
Wind_Direction
204 206 208 208 212 218 224 231 239 247 252 257 259 255 254 255 257 260 263 267 274 281 284 285 284 284 283 282 280 277 273 271 269 268 265 263 261 259 258 256 256 255 254
204 203 209 211 216 222 227 231 234 237 242 248 255 254 253 256 259 261 264 267 273 279 283 284 285 284 284 283 282 281 279 275 271 269 267 265 263 260 259 257 255 254 253
206 204 208 212 220 228 233 236 241 240 244 247 252 259 260 261 264 267 270 270 271 276 281 283 284 284 284 284 283 283 282 280 277 274 270 267 265 262 260 258 256 254 253
211 207 209 219 227 228 229 232 237 249 254 257 262 265 266 269 270 272 273 271 271 271 276 281 283 284 284 285 285 285 284 283 282 280 276 272 268 265 262 260 257 255 253
207 204 211 225 232 230 235 243 246 244 262 270 272 272 268 265 269 274 272 273 273 272 272 278 282 283 284 285 286 286 286 285 284 283 281 279 275 271 266 263 260 257 254
208 207 215 228 228 221 242 248 259 259 260 270 286 285 275 267 264 264 269 277 279 279 278 277 279 282 285 285 286 287 287 287 286 285 283 282 281 277 273 269 264 261 257
214 210 219 231 220 219 244 253 261 277 279 280 305 303 287 274 272 268 269 275 279 284 287 285 282 280 283 287 289 289 289 289 289 287 285 284 283 282 280 276 271 266 261
202 201 205 216 224 231 261 264 252 271 276 254 261 312 317 320 319 281 273 268 270 285 293 297 295 290 285 283 285 289 290 289 289 288 286 284 282 281 281 280 278 273 268
198 209 215 219 234 223 254 262 250 243 269 274 204 223 279 286 304 280 270 267 278 282 283 289 290 291 290 286 284 288 291 291 290 287 285 284 282 280 279 278 278 277 274
7 320 241 229 246 243 259 265 252 240 240 267 267 230 231 246 278 299 284 277 276 274 274 279 282 284 284 283 284 289 293 294 291 289 286 284 281 280 278 277 277 277 277
4 3 6 357 314 289 276 277 278 261 237 245 251 253 258 257 239 264 288 286 281 262 262 263 270 275 277 277 278 284 292 293 292 291 289 287 284 282 279 278 277 278 279
347 350 348 334 305 291 279 275 269 270 259 255 255 246 246 253 258 256 278 289 287 276 259 255 260 264 269 271 274 284 289 291 292 292 291 289 287 284 282 279 278 278 278
311 303 319 309 299 291 289 285 279 277 269 264 261 258 252 251 254 263 277 289 289 285 261 251 251 258 266 266 268 280 285 288 289 290 290 290 289 287 284 280 278 277 277
257 276 296 297 296 298 299 295 286 280 276 270 272 270 267 265 260 259 267 288 297 293 270 260 256 253 264 267 272 281 280 283 286 287 288 288 287 286 285 282 278 276 276
262 294 302 300 301 302 298 296 285 284 283 274 272 272 269 266 263 261 261 262 280 297 295 269 267 259 266 272 278 281 273 279 286 286 286 285 285 285 284 282 279 277 275
295 308 307 303 301 300 297 293 287 281 281 277 270 271 270 269 265 261 258 258 256 278 289 278 274 271 275 284 287 289 285 288 289 288 287 285 284 283 282 282 280 277 275
298 300 299 300 299 297 294 290 286 285 281 281 280 277 274 273 270 265 260 261 263 268 285 291 274 271 269 273 281 280 281 280 280 284 284 284 284 283 282 281 280 278 276
287 288 293 295 293 292 290 286 286 287 281 282 281 279 277 279 271 267 265 266 269 267 277 290 291 278 268 268 271 272 280 280 276 281 284 284 283 283 282 281 280 279 278
288 290 291 289 289 288 287 283 279 279 276 274 274 274 275 275 276 273 268 270 272 276 272 281 288 284 276 272 273 274 273 273 275 280 283 284 283 284 284 283 282 280 279
282 285 284 282 282 284 285 283 280 276 274 271 269 267 268 266 269 273 275 270 271 273 273 278 285 287 282 270 268 275 280 270 272 276 277 278 280 282 282 284 284 283 283
274 276 281 284 284 285 281 282 279 272 271 272 269 265 265 273 278 283 285 278 274 276 280 283 286 288 286 280 274 272 281 281 271 263 265 267 270 269 273 278 281 282 282
276 277 278 280 284 288 299 305 304 289 278 275 276 273 273 280 286 290 292 293 290 286 285 283 285 285 287 282 279 278 281 284 285 244 251 265 257 264 264 258 271 275 277
274 278 277 276 276 283 299 305 306 304 287 278 276 277 284 286 293 284 287 289 287 285 285 284 283 283 284 281 279 280 276 275 275 263 261 274 263 264 263 266 273 275 275
271 273 276 275 275 284 300 306 307 303 283 275 273 274 277 279 279 285 278 275 271 273 276 278 271 272 273 273 267 269 272 274 272 264 251 269 268 265 264 257 268 270 272
273 272 272 274 275 285 298 305 306 292 282 276 273 273 279 278 285 292 292 287 285 279 282 283 282 282 282 284 283 282 278 279 280 271 233 249 264 266 263 261 263 268 270
271 275 276 274 274 278 292 302 304 292 285 283 277 272 283 288 292 295 292 287 289 288 282 283 284 284 283 281 284 277 273 276 277 276 236 230 251 252 269 258 260 267 272
Height
1554 1555 1555 1555 1555 1555 1555 1555 1554 1554 1553 1552 1552 1551 1550 1549 1549 1548 1547 1547 1546 1545 1544 1543 1543 1542 1541 1541 1540 1539 1539 1538 1537 1537 1536 1536 1535 1535 1534 1534 1534 1534 1533
1552 1553 1553 1553 1553 1553 1553 1552 1552 1551 1550 1549 1549 1548 1547 1546 1545 1544 1543 1542 1541 1540 1539 1538 1538 1537 1536 1536 1535 1534 1534 1533 1533 1532 1532 1531 1531 1531 1530 1530 1530 1529 1529
1550 1550 1551 1551 1551 1551 1550 1549 1549 1548 1547 1546 1545 1544 1543 1542 1541 1539 1538 1537 1536 1535 1534 1533 1532 1531 1531 1530 1529 1528 1528 1527 1527 1527 1526 1526 1526 1525 1525 1525 1525 1524 1524
1548 1548 1548 1548 1548 1548 1547 1546 1546 1545 1544 1543 1541 1540 1539 1537 1536 1534 1533 1532 1531 1529 1528 1527 1526 1525 1525 1524 1523 1522 1522 1521 1520 1520 1519 1519 1519 1519 1519 1519 1519 1519 1519
1545 1545 1545 1545 1545 1544 1544 1543 1542 1541 1540 1538 1537 1535 1533 1532 1530 1529 1528 1527 1525 1524 1523 1522 1521 1520 1519 1518 1517 1516 1515 1514 1513 1513 1512 1512 1512 1512 1512 1512 1512 1512 1513
1542 1542 1542 1542 1541 1541 1540 1539 1538 1537 1536 1534 1532 1529 1528 1526 1525 1524 1523 1522 1521 1520 1519 1517 1516 1515 1514 1513 1511 1510 1509 1508 1507 1506 1505 1504 1503 1503 1503 1504 1504 1505 1505
1539 1539 1538 1538 1538 1537 1536 1535 1534 1533 1531 1530 1527 1523 1521 1520 1518 1518 1518 1517 1516 1515 1514 1513 1511 1510 1508 1507 1505 1504 1502 1501 1500 1499 1497 1496 1495 1494 1494 1494 1495 1495 1496
1536 1536 1535 1534 1534 1533 1532 1531 1530 1528 1527 1526 1524 1520 1515 1513 1511 1512 1512 1511 1510 1510 1509 1507 1506 1504 1502 1500 1498 1497 1495 1493 1492 1491 1490 1489 1488 1486 1486 1485 1485 1486 1486
1533 1533 1532 1531 1531 1530 1529 1528 1527 1525 1523 1523 1522 1520 1516 1510 1507 1503 1503 1504 1504 1503 1502 1501 1499 1497 1495 1493 1491 1489 1487 1485 1483 1482 1482 1481 1480 1479 1477 1476 1476 1476 1476
1531 1530 1529 1529 1528 1527 1525 1524 1523 1522 1520 1518 1518 1516 1515 1511 1507 1499 1497 1497 1497 1496 1495 1493 1492 1490 1488 1485 1483 1481 1478 1476 1475 1474 1473 1472 1471 1470 1469 1468 1468 1467 1467
1529 1528 1527 1526 1525 1524 1522 1521 1520 1518 1516 1514 1513 1511 1509 1507 1504 1499 1491 1488 1487 1487 1486 1485 1483 1481 1479 1477 1475 1472 1470 1468 1466 1465 1464 1463 1462 1461 1461 1460 1459 1458 1457
1526 1525 1524 1523 1522 1520 1519 1517 1515 1514 1512 1510 1508 1506 1504 1501 1498 1494 1487 1481 1478 1477 1476 1475 1474 1472 1470 1468 1466 1464 1461 1459 1457 1456 1454 1453 1452 1451 1451 1450 1449 1449 1448
1524 1523 1521 1520 1518 1517 1515 1513 1511 1509 1507 1504 1502 1500 1497 1495 1492 1489 1483 1476 1470 1467 1466 1465 1465 1463 1461 1459 1457 1455 1452 1450 1448 1446 1445 1443 1442 1441 1440 1440 1439 1439 1438
1521 1519 1518 1516 1514 1512 1510 1508 1506 1503 1501 1498 1496 1493 1490 1488 1485 1482 1478 1472 1462 1457 1456 1455 1455 1454 1453 1450 1448 1445 1442 1441 1439 1437 1435 1433 1431 1430 1430 1429 1429 1429 1428
1517 1516 1514 1512 1510 1508 1505 1502 1500 1497 1494 1492 1489 1486 1483 1480 1478 1475 1471 1468 1462 1450 1443 1444 1445 1444 1443 1440 1438 1435 1432 1430 1428 1426 1425 1423 1421 1420 1419 1419 1418 1418 1418
1514 1512 1510 1508 1505 1502 1500 1497 1493 1491 1487 1485 1482 1478 1475 1472 1469 1466 1463 1460 1456 1449 1437 1433 1434 1434 1432 1430 1428 1425 1422 1420 1418 1416 1414 1412 1411 1409 1408 1408 1408 1407 1407
1510 1507 1505 1502 1500 1497 1494 1490 1487 1484 1480 1477 1474 1471 1467 1464 1461 1458 1454 1451 1447 1442 1432 1423 1425 1423 1422 1420 1417 1415 1412 1409 1406 1404 1403 1401 1400 1399 1398 1398 1397 1397 1397
1505 1503 1500 1497 1494 1491 1488 1484 1480 1477 1474 1470 1467 1463 1459 1456 1452 1449 1445 1441 1438 1434 1427 1417 1414 1414 1412 1411 1408 1405 1402 1400 1397 1395 1393 1391 1390 1389 1388 1387 1387 1387 1387
1501 1498 1495 1492 1489 1485 1481 1478 1474 1470 1466 1463 1459 1455 1452 1448 1444 1440 1436 1432 1428 1425 1421 1414 1407 1405 1403 1402 1399 1396 1394 1391 1389 1386 1384 1382 1381 1379 1378 1378 1377 1377 1377
1496 1493 1490 1486 1483 1479 1475 1471 1467 1462 1459 1455 1451 1448 1444 1440 1435 1431 1427 1423 1420 1416 1412 1408 1401 1397 1395 1394 1392 1388 1384 1382 1380 1378 1376 1374 1372 1371 1370 1369 1368 1367 1367
1490 1487 1484 1480 1477 1473 1468 1464 1459 1455 1451 1446 1443 1439 1436 1432 1427 1424 1421 1416 1413 1409 1405 1401 1395 1391 1388 1386 1384 1381 1377 1373 1370 1369 1366 1364 1363 1362 1361 1360 1359 1358 1357
1485 1481 1478 1474 1470 1466 1462 1457 1453 1447 1443 1439 1434 1430 1427 1423 1419 1415 1412 1409 1406 1402 1397 1393 1388 1384 1380 1379 1376 1373 1370 1366 1362 1361 1359 1356 1355 1353 1352 1351 1350 1349 1349
1478 1475 1471 1467 1463 1459 1454 1449 1445 1440 1435 1430 1426 1421 1417 1414 1411 1406 1402 1399 1396 1394 1391 1387 1381 1376 1373 1371 1368 1365 1362 1358 1355 1353 1352 1347 1347 1344 1344 1343 1342 1341 1341
1471 1468 1464 1460 1455 1451 1447 1442 1437 1432 1426 1422 1418 1413 1409 1404 1401 1397 1393 1388 1385 1383 1380 1377 1372 1368 1365 1362 1360 1357 1353 1349 1346 1345 1345 1341 1339 1337 1336 1335 1334 1334 1333
1464 1460 1456 1452 1447 1443 1439 1434 1428 1422 1417 1413 1409 1405 1401 1396 1393 1390 1386 1380 1375 1372 1370 1367 1363 1360 1356 1354 1352 1349 1345 1342 1338 1336 1336 1334 1331 1330 1328 1327 1327 1327 1326
1456 1452 1448 1444 1439 1434 1430 1425 1420 1414 1408 1403 1399 1396 1393 1389 1385 1382 1378 1372 1366 1362 1359 1355 1352 1349 1346 1344 1342 1340 1337 1334 1331 1328 1328 1327 1325 1324 1321 1320 1320 1321 1321